This is the latest recevied weather packets stored in our database for station/object IK1QAD-3. If no packets are shown the sender has not sent any weather packets the latest 1 day(s).
| Time | Temp. | Humidity | Pressure | Rain* | Wind** | Luminosity | Snow |
|---|---|---|---|---|---|---|---|
| 1778088822 | 18.89° C | 65% | 1007 hPa | 0 mm | - | - | - |
| 1778088210 | 18.89° C | 65% | 1006.9 hPa | 0 mm | - | - | - |
| 1778087319 | 19.44° C | 65% | 1006.8 hPa | 0 mm | - | - | - |
| 1778086107 | 19.44° C | 65% | 1006.7 hPa | 0 mm | - | - | - |
| 1778085807 | 19.44° C | 66% | 1006.7 hPa | 0 mm | - | - | - |
| 1778085522 | 20° C | 65% | 1006.7 hPa | 0 mm | - | - | - |
| 1778085218 | 20° C | 64% | 1006.7 hPa | 0 mm | - | - | - |
| 1778084915 | 20° C | 65% | 1006.6 hPa | 0 mm | - | - | - |
| 1778084610 | 20° C | 65% | 1006.6 hPa | 0 mm | - | - | - |
| 1778083719 | 20° C | 68% | 1006.5 hPa | 0 mm | - | - | - |
| 1778083418 | 20° C | 67% | 1006.5 hPa | 0 mm | - | - | - |
| 1778082218 | 20° C | 68% | 1006.5 hPa | 0 mm | - | - | - |
| 1778081915 | 20° C | 69% | 1006.5 hPa | 0 mm | - | - | - |
| 1778081323 | 20° C | 70% | 1006.4 hPa | 0 mm | - | - | - |
| 1778080716 | 20.56° C | 70% | 1006.5 hPa | 0 mm | - | - | - |
| 1778080414 | 20.56° C | 68% | 1006.4 hPa | 0 mm | - | - | - |
| 1778079807 | 20° C | 71% | 1006.6 hPa | 0 mm | - | - | - |
| 1778073214 | 20° C | 64% | 1006.9 hPa | 0 mm | - | - | - |
| 1778072606 | 20° C | 66% | 1006.8 hPa | 0 mm | - | - | - |
| 1778071710 | 20° C | 67% | 1006.7 hPa | 0 mm | - | - | - |
| 1778069610 | 19.44° C | 69% | 1006.8 hPa | 0 mm | - | - | - |
| 1778069309 | 19.44° C | 72% | 1006.7 hPa | 0 mm | - | - | - |
| 1778068414 | 18.89° C | 76% | 1006.9 hPa | 0 mm | - | - | - |
| 1778068116 | 18.89° C | 75% | 1006.9 hPa | 0 mm | - | - | - |
| 1778066914 | 18.33° C | 76% | 1006.9 hPa | 0 mm | - | - | - |
* Rain latest hour (hover to see other rain measurements)
** Current wind speed in m/s (hover to see current wind gust speed)